COSMOS 1275 DEB, 12695

Orbit data source: Space-Track

COSMOS 1275 DEB, 12695 is space debris in LEO originally from a launch on Thu, 04 Jun 1981 UTC launched from the Plesetsk Missile And Space Complex (PKMTR). Debris objects in space refer to the collection of defunct objects orbiting the Earth. Examples of debris include non-operational satellites, rocket bodies, and fragments generated from explosions, collisions, or faulty payload assembly.

Loading next visibility...
Identifier
12695, 1981-053AP
Orbit
LEO
Last TLE update
15 hours ago
Origin
Manufacturer
Unknown
Mission
Spacecraft
Bus & Motor
Unknown
Mass
Unknown
Launch date (UTC)
1981-06-04 (44 years ago)
Launch vehicle
Unknown
Launch site
Plesetsk Missile And Space Complex (PKMTR)
Object type
Payload
Rocket body
Debris
Shape & HBR
Unknown
Radar Cross Section
Small (<0.1 m²)

Expand to show TLE details & history

TLE from 15 hours ago
0 COSMOS 1275 DEB
1 12695U 81053AP  25199.35366863  .00001097  00000-0  11137-2 0  9998
2 12695  83.0109 146.4426 0102302 245.0032 238.8832 13.73885832183225
Epoch: 2025-07-18T08:29Z
TLE epoch observation values (Epoch: 2025-07-18T08:29:16.969Z)
Latitude
56.55364°
Longitude
-107.92435°
Altitude
1,034.604 km
Speed
7.32 km/s
True Right ascension
21h 03m 12s
True Declination
56° 24' 04"
Sunlit
Object was in daylight at epoch
Visualization orbit readout
Latitude
-46.18575°
Longitude
74.95841°
Altitude
977.46 km
Speed
7.375 km/s
Apparent Right ascension
04h 54m 11s
Apparent Declination
-68° 08' 59"
Sunlit
Object is in daylight
Visualization observer readout
Local Sidereal Time
12:10:48
Azimuth
209.028° SW
Elevation
-43.569°
Doppler factor
1
Orbital elements
Apogee altitude
1,058.104 km
Perigee altitude
907.497 km
Semi-major axis
7,360.938 km
Eccentricity
0.01023
Inclination
83.0109°
RAAN
146.4426°
Arg. of periapsis
245.0032°
True anomaly
237.88622°
Mean anomaly
238.8832°
Eccentric anomaly
238.38405°
Mean motion
3.43671 °/min
Orbital period
104.75 mins
BSTAR
0.0011137
Loading maneuver chart data...
Loading SW <> Apogee altitude chart data...
Loading historical data...
Loading historical data...
Loading historical data...
Loading historical data...
Loading historical data...
Loading historical data...
Loading historical data...
|